WZZ2728 LBSF-LUKK

Flight info

Callsign WZZ2728
Flight time 1h 2m
Altitude 37000
Route GOL DCT SOMOV DCT BCU DCT BUSES
Aircraft A321/M-SDE3FGHIRWY/LB1

Departure

Time 2026-05-06 14:51
Airport Sofia Airport (LBSF)

Arrival

Time 2026-05-06 15:54
Airport Chişinău International Airport (LUKK)
Time Latitude Longitude Altitude Speed Heading
2026-05-06 14:34 42.69104 23.40199 1756 ft 0 kts 196°
2026-05-06 14:45 42.69103 23.40199 1756 ft 0 kts 196°
2026-05-06 14:46 42.69088 23.40193 1756 ft 4 kts 197°
2026-05-06 14:46 42.69067 23.40154 1756 ft 7 kts 265°
2026-05-06 14:47 42.69078 23.40083 1756 ft 9 kts 286°
2026-05-06 14:47 42.69097 23.39990 1756 ft 12 kts 280°
2026-05-06 14:47 42.69110 23.39871 1756 ft 14 kts 287°
2026-05-06 14:47 42.69142 23.39732 1756 ft 17 kts 287°
2026-05-06 14:48 42.69176 23.39583 1756 ft 16 kts 294°
2026-05-06 14:48 42.69276 23.39549 1756 ft 17 kts
2026-05-06 14:48 42.69370 23.39560 1756 ft 14 kts
2026-05-06 14:48 42.69467 23.39570 1756 ft 9 kts
2026-05-06 14:49 42.69519 23.39576 1756 ft 9 kts
2026-05-06 14:49 42.69581 23.39583 1756 ft 9 kts
2026-05-06 14:49 42.69646 23.39590 1756 ft 7 kts
2026-05-06 14:49 42.69673 23.39592 1756 ft 4 kts
2026-05-06 14:50 42.69709 23.39596 1756 ft 7 kts
2026-05-06 14:50 42.69763 23.39609 1756 ft 9 kts 33°
2026-05-06 14:50 42.69772 23.39654 1756 ft 4 kts 94°
2026-05-06 14:50 42.69763 23.39805 1757 ft 43 kts 95°
2026-05-06 14:51 42.69717 23.40549 1757 ft 113 kts 94°
2026-05-06 14:51 42.69638 23.41885 1757 ft 168 kts 94°
2026-05-06 14:51 42.69529 23.43615 2054 ft 185 kts 94°
2026-05-06 14:51 42.69403 23.45359 2740 ft 187 kts 94°
2026-05-06 14:52 42.69274 23.47115 3452 ft 185 kts 95°
2026-05-06 14:52 42.69150 23.48829 4130 ft 180 kts 95°
2026-05-06 14:52 42.69150 23.50536 4629 ft 186 kts 76°
2026-05-06 14:52 42.69644 23.52178 5140 ft 190 kts 64°
2026-05-06 14:53 42.70247 23.53864 5522 ft 205 kts 64°
2026-05-06 14:53 42.70884 23.55666 5942 ft 217 kts 65°
2026-05-06 14:53 42.71547 23.57568 6290 ft 235 kts 65°
2026-05-06 14:53 42.72302 23.59690 6577 ft 257 kts 64°
2026-05-06 14:54 42.73109 23.61892 7031 ft 271 kts 63°
2026-05-06 14:54 42.73980 23.64259 7612 ft 279 kts 64°
2026-05-06 14:54 42.74820 23.66607 8356 ft 281 kts 64°
2026-05-06 14:54 42.75689 23.69078 8952 ft 288 kts 65°
2026-05-06 14:55 42.76553 23.71549 9676 ft 290 kts 64°
2026-05-06 14:55 42.77431 23.74047 10336 ft 295 kts 64°
2026-05-06 14:55 42.78340 23.76622 10739 ft 309 kts 66°
2026-05-06 14:55 42.79302 23.79327 11005 ft 327 kts 65°
2026-05-06 14:56 42.79994 23.81240 11145 ft 340 kts 65°
2026-05-06 14:56 42.81063 23.84202 11378 ft 357 kts 64°
2026-05-06 14:56 42.82384 23.87137 11701 ft 369 kts 56°
2026-05-06 14:56 42.83895 23.89992 12304 ft 373 kts 53°
2026-05-06 14:57 42.85467 23.92815 12920 ft 375 kts 52°
2026-05-06 14:57 42.87057 23.95657 13505 ft 379 kts 53°
2026-05-06 14:57 42.88642 23.98542 14081 ft 382 kts 53°
2026-05-06 14:57 42.90221 24.01475 14656 ft 384 kts 53°
2026-05-06 14:58 42.91801 24.04427 15249 ft 386 kts 53°
2026-05-06 14:58 42.93397 24.07401 15758 ft 390 kts 52°
2026-05-06 14:58 42.95049 24.10356 16328 ft 391 kts 47°
2026-05-06 14:58 42.97091 24.12777 16905 ft 389 kts 32°
2026-05-06 14:59 42.99419 24.14651 17469 ft 390 kts 27°
2026-05-06 14:59 43.01829 24.16387 17948 ft 393 kts 26°
2026-05-06 14:59 43.04268 24.18103 18420 ft 396 kts 26°
2026-05-06 14:59 43.06710 24.19873 18885 ft 399 kts 27°
2026-05-06 15:00 43.09139 24.21732 19340 ft 402 kts 30°
2026-05-06 15:00 43.11442 24.23932 19792 ft 405 kts 35°
2026-05-06 15:00 43.13695 24.26270 20231 ft 408 kts 37°
2026-05-06 15:00 43.15948 24.28660 20662 ft 411 kts 37°
2026-05-06 15:01 43.18218 24.31050 21080 ft 413 kts 36°
2026-05-06 15:01 43.20519 24.33433 21519 ft 415 kts 34°
2026-05-06 15:01 43.22829 24.35796 21999 ft 415 kts 34°
2026-05-06 15:01 43.25146 24.38168 22405 ft 417 kts 34°
2026-05-06 15:02 43.27472 24.40566 22787 ft 419 kts 34°
2026-05-06 15:02 43.29806 24.42988 23158 ft 422 kts 34°
2026-05-06 15:02 43.32151 24.45425 23526 ft 424 kts 34°
2026-05-06 15:02 43.34510 24.47876 23879 ft 426 kts 34°
2026-05-06 15:03 43.36851 24.50308 24218 ft 428 kts 34°
2026-05-06 15:03 43.39233 24.52784 24557 ft 431 kts 34°
2026-05-06 15:03 43.41626 24.55272 24887 ft 433 kts 34°
2026-05-06 15:03 43.44031 24.57778 25212 ft 435 kts 34°
2026-05-06 15:04 43.46444 24.60293 25538 ft 436 kts 34°
2026-05-06 15:04 43.48869 24.62824 25849 ft 438 kts 34°
2026-05-06 15:04 43.51302 24.65367 26153 ft 440 kts 35°
2026-05-06 15:04 43.53745 24.67922 26443 ft 442 kts 35°
2026-05-06 15:05 43.56198 24.70489 26739 ft 444 kts 35°
2026-05-06 15:05 43.58660 24.73069 27029 ft 445 kts 35°
2026-05-06 15:05 43.61127 24.75662 27350 ft 446 kts 33°
2026-05-06 15:05 43.63598 24.78255 27681 ft 446 kts 32°
2026-05-06 15:06 43.66069 24.80850 27947 ft 448 kts 33°
2026-05-06 15:06 43.68551 24.83458 28214 ft 449 kts 32°
2026-05-06 15:06 43.71167 24.85786 28456 ft 445 kts 24°
2026-05-06 15:06 43.73927 24.87718 28705 ft 445 kts 22°
2026-05-06 15:07 43.76733 24.89557 28937 ft 447 kts 21°
2026-05-06 15:07 43.79550 24.91364 29232 ft 446 kts 21°
2026-05-06 15:07 43.82356 24.93191 29573 ft 445 kts 21°
2026-05-06 15:07 43.85144 24.95053 29860 ft 445 kts 22°
2026-05-06 15:08 43.87920 24.96938 30153 ft 444 kts 22°
2026-05-06 15:08 43.90694 24.98823 30439 ft 444 kts 22°
2026-05-06 15:08 43.93469 25.00691 30729 ft 443 kts 22°
2026-05-06 15:08 43.96238 25.02544 31030 ft 441 kts 22°
2026-05-06 15:09 43.99004 25.04394 31301 ft 441 kts 22°
2026-05-06 15:09 44.01765 25.06247 31552 ft 441 kts 22°
2026-05-06 15:09 44.04529 25.08108 31734 ft 442 kts 22°
2026-05-06 15:09 44.07291 25.09973 32010 ft 441 kts 22°
2026-05-06 15:10 44.10044 25.11836 32312 ft 439 kts 22°
2026-05-06 15:10 44.12780 25.13688 32573 ft 438 kts 22°
2026-05-06 15:10 44.15521 25.15540 32814 ft 437 kts 22°
2026-05-06 15:10 44.18255 25.17389 33054 ft 437 kts 22°
2026-05-06 15:11 44.20988 25.19241 33280 ft 436 kts 22°
2026-05-06 15:11 44.23713 25.21090 33499 ft 436 kts 22°
2026-05-06 15:11 44.26439 25.22944 33723 ft 435 kts 22°
2026-05-06 15:11 44.29159 25.24796 33934 ft 435 kts 22°
2026-05-06 15:12 44.31874 25.26644 34144 ft 434 kts 22°
2026-05-06 15:12 44.34591 25.28493 34333 ft 434 kts 22°
2026-05-06 15:12 44.37305 25.30342 34499 ft 434 kts 22°
2026-05-06 15:12 44.40019 25.32196 34704 ft 434 kts 22°
2026-05-06 15:13 44.42728 25.34049 34884 ft 433 kts 22°
2026-05-06 15:13 44.45433 25.35902 35090 ft 432 kts 21°
2026-05-06 15:13 44.48133 25.37749 35283 ft 432 kts 21°
2026-05-06 15:13 44.50834 25.39598 35440 ft 432 kts 21°
2026-05-06 15:14 44.53532 25.41451 35615 ft 432 kts 21°
2026-05-06 15:14 44.56227 25.43304 35780 ft 431 kts 21°
2026-05-06 15:14 44.58918 25.45157 35937 ft 431 kts 21°
2026-05-06 15:14 44.61610 25.47010 36078 ft 431 kts 21°
2026-05-06 15:15 44.64302 25.48862 36204 ft 431 kts 21°
2026-05-06 15:15 44.66995 25.50719 36336 ft 431 kts 21°
2026-05-06 15:15 44.69683 25.52576 36450 ft 431 kts 21°
2026-05-06 15:15 44.72374 25.54437 36569 ft 431 kts 22°
2026-05-06 15:16 44.75070 25.56302 36654 ft 432 kts 22°
2026-05-06 15:16 44.77764 25.58170 36769 ft 432 kts 22°
2026-05-06 15:16 44.80459 25.60039 36892 ft 432 kts 22°
2026-05-06 15:16 44.83155 25.61912 37003 ft 432 kts 22°
2026-05-06 15:17 44.85846 25.63780 37014 ft 432 kts 22°
2026-05-06 15:17 44.91237 25.67533 37016 ft 432 kts 22°
2026-05-06 15:18 44.96632 25.71295 37019 ft 432 kts 22°
2026-05-06 15:18 45.02061 25.75093 37021 ft 433 kts 22°
2026-05-06 15:19 45.07427 25.78852 37015 ft 433 kts 22°
2026-05-06 15:19 45.12826 25.82639 36976 ft 433 kts 22°
2026-05-06 15:20 45.18231 25.86442 36964 ft 434 kts 22°
2026-05-06 15:20 45.23638 25.90255 36959 ft 434 kts 22°
2026-05-06 15:21 45.29057 25.94083 36972 ft 435 kts 22°
2026-05-06 15:21 45.34470 25.97914 37012 ft 435 kts 22°
2026-05-06 15:22 45.39891 26.01760 37005 ft 436 kts 22°
2026-05-06 15:22 45.45318 26.05620 37028 ft 436 kts 23°
2026-05-06 15:23 45.50737 26.09485 37033 ft 436 kts 23°
2026-05-06 15:23 45.56162 26.13358 37047 ft 436 kts 23°
2026-05-06 15:24 45.61586 26.17236 37048 ft 436 kts 23°
2026-05-06 15:24 45.67013 26.21133 37044 ft 436 kts 23°
2026-05-06 15:25 45.72439 26.25035 37046 ft 436 kts 23°
2026-05-06 15:25 45.77865 26.28940 37039 ft 437 kts 23°
2026-05-06 15:26 45.83292 26.32858 37042 ft 437 kts 23°
2026-05-06 15:26 45.88717 26.36783 37040 ft 437 kts 23°
2026-05-06 15:27 45.94140 26.40717 37010 ft 437 kts 23°
2026-05-06 15:27 45.99567 26.44662 36999 ft 437 kts 23°
2026-05-06 15:28 46.04995 26.48615 36975 ft 438 kts 23°
2026-05-06 15:28 46.10433 26.52584 36954 ft 438 kts 23°
2026-05-06 15:29 46.15873 26.56566 36959 ft 439 kts 24°
2026-05-06 15:29 46.21322 26.60563 36976 ft 439 kts 24°
2026-05-06 15:30 46.26771 26.64565 36985 ft 440 kts 24°
2026-05-06 15:30 46.32223 26.68580 36999 ft 440 kts 24°
2026-05-06 15:31 46.37681 26.72610 36999 ft 440 kts 24°
2026-05-06 15:31 46.43140 26.76648 36998 ft 441 kts 24°
2026-05-06 15:32 46.50884 26.83827 36959 ft 449 kts 44°
2026-05-06 15:32 46.52788 26.87438 36946 ft 453 kts 57°
2026-05-06 15:32 46.54225 26.91525 36977 ft 455 kts 62°
2026-05-06 15:33 46.56831 26.99926 36973 ft 457 kts 63°
2026-05-06 15:33 46.59526 27.08223 37023 ft 457 kts 62°
2026-05-06 15:34 46.62315 27.16509 36927 ft 454 kts 62°
2026-05-06 15:34 46.63691 27.20693 36439 ft 452 kts 62°
2026-05-06 15:34 46.65020 27.24795 35602 ft 457 kts 62°
2026-05-06 15:35 46.66400 27.29063 34626 ft 463 kts 62°
2026-05-06 15:35 46.67759 27.33249 33878 ft 463 kts 62°
2026-05-06 15:35 46.69140 27.37484 33117 ft 463 kts 62°
2026-05-06 15:35 46.70524 27.41729 32312 ft 465 kts 62°
2026-05-06 15:36 46.71911 27.45995 31482 ft 466 kts 62°
2026-05-06 15:36 46.73290 27.50256 30775 ft 464 kts 62°
2026-05-06 15:36 46.74660 27.54501 29951 ft 464 kts 62°
2026-05-06 15:36 46.76037 27.58770 29081 ft 465 kts 62°
2026-05-06 15:37 46.77408 27.63026 28342 ft 462 kts 62°
2026-05-06 15:37 46.78769 27.67256 27636 ft 459 kts 62°
2026-05-06 15:37 46.80119 27.71459 26985 ft 455 kts 62°
2026-05-06 15:37 46.81445 27.75594 26620 ft 443 kts 64°
2026-05-06 15:38 46.82731 27.79616 26301 ft 431 kts 64°
2026-05-06 15:38 46.83580 27.82277 25925 ft 427 kts 64°
2026-05-06 15:38 46.85239 27.87472 24996 ft 425 kts 64°
2026-05-06 15:38 46.86063 27.90054 24573 ft 422 kts 64°
2026-05-06 15:39 46.87297 27.93930 23951 ft 419 kts 64°
2026-05-06 15:39 46.88519 27.97774 23339 ft 415 kts 64°
2026-05-06 15:39 46.89730 28.01588 22720 ft 412 kts 64°
2026-05-06 15:39 46.90927 28.05366 22170 ft 407 kts 64°
2026-05-06 15:40 46.92107 28.09096 21583 ft 403 kts 64°
2026-05-06 15:40 46.93328 28.12760 20985 ft 399 kts 62°
2026-05-06 15:40 46.94582 28.16360 20353 ft 396 kts 62°
2026-05-06 15:40 46.95837 28.19929 19723 ft 393 kts 62°
2026-05-06 15:41 46.97082 28.23476 19120 ft 390 kts 62°
2026-05-06 15:41 46.98308 28.26993 18520 ft 386 kts 62°
2026-05-06 15:41 46.99521 28.30487 17919 ft 383 kts 62°
2026-05-06 15:41 47.00720 28.33948 17318 ft 380 kts 62°
2026-05-06 15:42 47.01910 28.37386 16680 ft 377 kts 62°
2026-05-06 15:42 47.03100 28.40819 15796 ft 381 kts 63°
2026-05-06 15:42 47.04309 28.44311 14810 ft 387 kts 63°
2026-05-06 15:42 47.05524 28.47824 14119 ft 385 kts 63°
2026-05-06 15:43 47.06739 28.51347 13541 ft 378 kts 63°
2026-05-06 15:43 47.07915 28.54765 12969 ft 372 kts 63°
2026-05-06 15:43 47.09070 28.58128 12397 ft 367 kts 63°
2026-05-06 15:43 47.10211 28.61450 11821 ft 362 kts 63°
2026-05-06 15:44 47.11336 28.64728 11246 ft 357 kts 63°
2026-05-06 15:44 47.12444 28.67962 10685 ft 353 kts 63°
2026-05-06 15:44 47.13532 28.71142 10333 ft 342 kts 63°
2026-05-06 15:44 47.14573 28.74188 10202 ft 326 kts 64°
2026-05-06 15:45 47.15560 28.77099 10076 ft 311 kts 64°
2026-05-06 15:45 47.16343 28.79976 9920 ft 297 kts 78°
2026-05-06 15:45 47.16346 28.82920 9707 ft 286 kts 104°
2026-05-06 15:45 47.15456 28.85497 9228 ft 286 kts 131°
2026-05-06 15:46 47.13845 28.87166 8812 ft 285 kts 158°
2026-05-06 15:46 47.11914 28.87764 8432 ft 284 kts 172°
2026-05-06 15:46 47.10014 28.88432 8000 ft 281 kts 152°
2026-05-06 15:46 47.08563 28.90273 7567 ft 277 kts 122°
2026-05-06 15:47 47.07679 28.92763 7206 ft 274 kts 116°
2026-05-06 15:47 47.06840 28.95257 6816 ft 272 kts 117°
2026-05-06 15:47 47.06000 28.97744 6416 ft 272 kts 117°
2026-05-06 15:47 47.05174 29.00233 6010 ft 271 kts 117°
2026-05-06 15:48 47.04361 29.02717 5615 ft 270 kts 116°
2026-05-06 15:48 47.03544 29.05193 5225 ft 269 kts 116°
2026-05-06 15:48 47.02727 29.07651 4833 ft 268 kts 117°
2026-05-06 15:48 47.01882 29.10079 4441 ft 267 kts 118°
2026-05-06 15:49 47.01015 29.12470 4082 ft 264 kts 121°
2026-05-06 15:49 47.00070 29.14758 3729 ft 260 kts 129°
2026-05-06 15:49 46.98768 29.16493 3452 ft 249 kts 149°
2026-05-06 15:49 46.97261 29.17641 3276 ft 239 kts 158°
2026-05-06 15:50 46.95678 29.18079 3098 ft 228 kts 184°
2026-05-06 15:50 46.94228 29.17408 3069 ft 213 kts 210°
2026-05-06 15:50 46.93241 29.15889 2932 ft 206 kts 242°
2026-05-06 15:50 46.92985 29.13854 2690 ft 205 kts 269°
2026-05-06 15:51 46.93105 29.11876 2644 ft 188 kts 271°
2026-05-06 15:51 46.93170 29.09975 2301 ft 187 kts 268°
2026-05-06 15:51 46.93212 29.08123 2080 ft 173 kts 268°
2026-05-06 15:51 46.93202 29.06430 1821 ft 160 kts 263°
2026-05-06 15:52 46.93155 29.04835 1537 ft 149 kts 264°
2026-05-06 15:52 46.93095 29.03392 1352 ft 141 kts 263°
2026-05-06 15:52 46.93030 29.01959 1202 ft 141 kts 264°
2026-05-06 15:52 46.92975 29.00535 981 ft 139 kts 265°
2026-05-06 15:53 46.92933 28.99114 843 ft 141 kts 265°
2026-05-06 15:53 46.92896 28.97692 638 ft 139 kts 265°
2026-05-06 15:53 46.92855 28.96273 467 ft 139 kts 265°
2026-05-06 15:53 46.92820 28.94866 347 ft 132 kts 267°
2026-05-06 15:54 46.92794 28.93719 343 ft 88 kts 267°
2026-05-06 15:54 46.92776 28.93059 343 ft 50 kts 268°
2026-05-06 15:54 46.92767 28.92601 343 ft 39 kts 266°
2026-05-06 15:54 46.92757 28.92257 343 ft 30 kts 268°
2026-05-06 15:55 46.92781 28.92009 343 ft 22 kts 329°
2026-05-06 15:55 46.92925 28.91993 343 ft 22 kts 356°
2026-05-06 15:55 46.93085 28.91984 343 ft 19 kts
2026-05-06 15:55 46.93221 28.92033 343 ft 15 kts 12°
2026-05-06 15:56 46.93309 28.92039 343 ft 8 kts 359°
2026-05-06 15:56 46.93380 28.92038 343 ft 12 kts 359°
2026-05-06 15:56 46.93470 28.92064 343 ft 14 kts 53°
2026-05-06 15:56 46.93480 28.92224 343 ft 18 kts 94°
2026-05-06 15:57 46.93472 28.92420 343 ft 21 kts 93°
2026-05-06 15:57 46.93487 28.92640 343 ft 23 kts 77°
2026-05-06 15:57 46.93478 28.92861 343 ft 23 kts 98°
2026-05-06 15:57 46.93452 28.93096 343 ft 24 kts 95°
2026-05-06 15:58 46.93436 28.93325 343 ft 16 kts 95°
2026-05-06 15:58 46.93430 28.93402 343 ft 4 kts 97°
2026-05-06 15:58 46.93420 28.93449 343 ft 5 kts 117°
2026-05-06 15:58 46.93388 28.93479 343 ft 6 kts 174°
2026-05-06 15:59 46.93345 28.93472 343 ft 6 kts 180°
2026-05-06 15:59 46.93316 28.93510 343 ft 6 kts 101°
2026-05-06 15:59 46.93337 28.93536 343 ft 5 kts
2026-05-06 15:59 46.93363 28.93540 343 ft 3 kts
2026-05-06 16:00 46.93372 28.93541 343 ft 0 kts